Location: �quirre
(50.4736°N, 2.2351°E)
Time: 05:17:41
(UTC+00:00)

SL-4 R/B - Pass Details

Date: 07 August 2020
Orbit: 428 x 665 km, 51.6° (Epoch: 23 September)

Event Time Altitude Azimuth Distance (km) Brightness Sun altitude
Exits shadow 00:22:06 15° 84° (E) 1,267 4.0 -23.0°
Drops below altitude 10° 00:22:47 10° 85° (E) 1,541 4.4 -22.9°
Sets 00:24:52 0° 88° (E) 2,398 5.4 -22.9°
